Tracking 28794 objects as of 19-Apr-2024
HD Live streaming from Space Station
objects crossing your sky now

COSMOS 375 DEB

Track COSMOS 375 DEB now!
10-day predictions


NORAD ID: 4634
Int'l Code: 1970-091L
Perigee: 535.9 km
Apogee: 1,301.0 km
Inclination: 62.8 °
Period: 103.2 minutes
Semi major axis: 7289 km
RCS: 0.092 m2 (small)
Launch date: October 30, 1970
Source: Commonwealth of Independent States (former USSR) (CIS)
Launch site: TYURATAM MISSILE AND SPACE COMPLEX (TTMTR)

Note: This is SATELLITE DEBRIS
Your satellite tracking list
Your tracking list is empty




NASA's NSSDC Master Catalog

Two Line Element Set (TLE):
1 04634U 70091L   24110.62087343  .00004648  00000-0  10980-2 0  9997
2 04634  62.8036 238.2505 0524828 337.3761  20.4886 13.94961641633798
Source of the keplerian elements: AFSPC